Probability
0 1 0 0 1 2 2 2 1 0 0 0 0 0 0 0 0 0 0 0 0 0 0 0 0 0 0 0 0 0 0 0 0 1 0 0 0 0 0 0 0 0 0
1 1 0 0 0 1 1 1 0 0 0 0 0 0 0 0 0 0 0 0 0 0 0 0 0 0 0 0 0 0 0 0 1 1 1 0 0 0 0 0 0 0 0
0 0 0 0 0 0 0 0 0 0 0 0 0 0 0 0 0 0 0 0 0 0 0 0 0 0 0 0 0 0 0 0 1 1 1 0 0 0 0 0 0 0 0
0 0 0 0 0 0 0 0 0 0 0 0 0 0 0 0 0 0 0 0 0 0 0 0 0 0 0 0 0 0 0 0 0 1 1 1 0 0 0 0 0 0 0
0 0 0 0 0 0 0 0 0 0 0 0 0 0 0 0 0 0 0 0 0 0 0 0 0 0 0 0 0 0 0 0 0 0 1 1 1 0 0 0 0 0 0
0 0 0 0 0 0 0 0 0 0 0 0 0 0 0 0 0 0 0 0 0 0 0 0 0 0 0 0 0 0 0 0 0 0 0 1 1 0 0 0 0 0 0
0 0 0 0 0 0 0 0 0 0 0 0 0 0 0 0 0 0 0 0 0 0 0 0 0 0 0 0 0 0 0 0 0 0 0 0 0 0 0 0 0 0 0
0 0 0 0 0 0 0 0 0 0 0 0 0 0 0 0 0 0 0 0 0 0 0 0 0 0 0 0 0 0 0 0 0 0 0 0 0 0 0 0 0 0 0
0 0 0 0 0 0 0 0 0 0 0 0 0 0 0 0 0 0 0 0 0 0 0 0 0 0 0 0 0 0 0 0 0 0 0 0 0 0 0 0 0 0 0
0 0 0 0 0 0 0 0 0 0 0 0 0 0 0 0 0 0 0 0 0 0 0 0 0 0 0 0 0 0 0 0 0 0 0 0 0 0 0 0 0 0 0
0 0 0 0 0 0 0 0 0 0 0 0 0 0 0 0 0 0 0 0 0 0 0 0 0 0 0 0 0 0 0 0 0 0 0 0 0 0 0 0 0 0 0
0 0 0 0 0 0 0 0 0 0 0 0 0 0 0 0 0 0 0 0 0 0 0 0 0 0 0 0 0 0 0 0 0 0 0 0 0 0 0 0 0 0 0
0 0 0 0 0 0 0 0 0 0 0 0 0 0 0 0 0 0 0 0 0 0 0 0 0 0 0 0 0 0 0 0 0 0 0 0 0 0 0 0 0 0 0
0 0 0 0 0 0 0 0 0 0 0 0 0 0 0 0 0 0 0 0 0 0 0 0 0 0 0 0 0 0 0 0 0 0 0 0 0 0 0 0 0 0 0
0 0 0 0 0 0 0 0 0 0 0 0 0 0 0 0 0 0 0 0 0 0 0 0 0 0 0 0 0 0 0 0 0 0 0 0 0 0 0 0 0 0 0
0 0 0 0 0 0 0 0 0 0 0 0 0 0 0 0 0 0 0 0 0 0 0 0 0 0 0 0 0 0 0 0 0 0 0 0 0 0 0 0 0 0 0
0 0 0 0 0 0 0 0 0 0 0 0 0 0 0 0 0 0 0 0 0 0 0 0 0 0 0 0 0 0 0 0 0 0 0 0 0 0 0 0 0 0 0
0 0 0 0 0 0 0 0 0 0 0 0 0 0 0 0 0 0 0 0 0 0 0 0 0 0 0 0 0 0 0 0 0 0 0 0 0 0 0 0 0 0 0
0 0 0 0 0 0 0 0 0 0 0 0 0 0 0 0 0 0 0 0 0 0 0 0 0 0 0 0 0 0 0 0 0 0 0 0 0 0 0 0 0 0 0
0 0 0 0 0 0 0 0 0 0 0 0 0 0 0 0 0 0 0 0 0 0 0 0 0 0 0 0 0 0 0 0 0 0 0 0 0 0 0 0 0 0 0
0 0 0 0 0 0 0 0 0 0 0 0 0 0 0 0 0 0 0 0 0 0 0 0 0 0 0 0 0 0 0 0 0 0 0 0 0 0 0 0 0 0 0
0 0 0 0 0 0 0 0 0 0 0 0 0 0 0 0 0 0 0 0 0 0 0 0 0 0 0 0 0 0 0 0 0 0 0 0 0 0 0 0 0 0 0
0 0 0 0 0 0 0 0 0 0 0 0 0 0 0 0 0 0 0 0 0 0 0 0 0 0 0 0 0 0 0 0 0 0 0 0 0 0 0 0 0 0 0
0 0 0 0 0 0 0 0 0 0 0 0 0 0 0 0 0 0 0 0 0 0 0 0 0 0 0 0 0 0 0 0 0 0 0 0 0 0 0 0 0 0 0
0 0 0 0 0 0 0 0 0 0 0 0 0 0 0 0 0 0 0 0 0 0 0 0 0 0 0 0 0 0 0 0 0 0 0 0 0 0 0 0 0 0 0
0 0 0 0 0 0 0 0 0 0 0 0 0 0 0 0 0 0 0 0 0 0 0 0 0 0 0 0 0 0 0 0 0 0 0 0 0 0 0 0 0 0 0
Wind_Speed
9 9 10 10 10 9 9 9 9 8 6 5 4 4 3 2 2 2 3 3 3 2 2 2 2 2 2 2 2 2 3 3 2 1 2 1 1 1 2 2 2 2 3
9 9 10 10 11 11 10 10 9 8 7 5 4 3 3 2 2 2 2 2 2 2 2 2 2 2 1 2 2 2 2 2 3 2 1 1 1 1 1 2 2 3 3
12 11 11 11 10 11 11 9 9 8 7 7 5 4 3 3 2 2 2 2 2 2 2 2 1 1 1 1 2 2 2 2 2 3 3 2 1 2 1 1 2 3 3
11 11 11 11 11 9 9 9 8 8 8 7 6 7 5 4 3 2 2 2 2 2 2 1 1 1 1 1 2 2 2 2 2 1 2 3 2 2 2 1 1 3 4
10 10 10 10 9 8 8 8 8 8 7 7 7 6 5 4 3 3 3 3 2 2 1 1 1 1 1 1 1 2 2 1 2 2 1 1 1 2 3 3 3 3 3
8 8 8 8 8 8 8 8 8 8 7 7 6 6 6 6 5 5 4 2 2 1 1 1 1 1 1 1 1 1 1 1 2 2 2 2 2 2 3 4 4 4 4
6 7 8 9 9 9 8 8 8 8 8 7 6 6 6 6 6 5 4 3 2 1 1 0 0 0 0 1 1 1 1 2 2 2 2 2 2 2 3 4 4 5 4
5 6 7 8 8 9 8 8 8 8 7 7 6 5 5 4 4 4 3 3 2 2 1 1 0 0 0 1 1 1 1 2 2 3 3 2 2 2 3 3 4 5 4
4 5 6 7 7 7 8 8 8 7 7 6 6 5 5 4 4 4 3 2 2 2 2 1 1 0 1 1 1 1 1 2 2 3 3 3 2 3 3 3 4 4 5
3 4 5 5 6 6 6 6 7 6 6 6 5 4 4 4 4 4 3 3 3 2 2 2 1 1 1 1 1 1 2 2 2 2 3 3 3 3 3 4 4 4 5
3 4 4 5 5 6 6 6 6 6 5 5 5 4 4 4 4 3 3 3 3 3 2 2 2 1 1 1 1 2 2 3 3 3 3 4 4 4 4 4 4 5 5
3 4 4 5 5 5 5 5 5 5 5 5 4 4 4 4 4 3 3 3 3 3 2 2 2 2 2 2 2 2 2 3 3 3 3 4 3 5 4 4 5 5 6
3 4 4 4 4 4 5 5 5 4 4 4 4 4 4 4 4 3 3 3 3 3 2 2 2 2 2 2 2 3 3 3 4 4 4 4 5 5 5 5 6 5 5
3 4 4 4 4 4 4 4 4 4 4 4 4 4 4 4 3 3 3 3 3 3 2 2 2 2 2 2 3 3 3 4 4 4 5 5 5 6 6 6 6 6 6
2 3 3 3 4 4 4 4 4 4 4 4 4 4 3 3 3 3 3 3 2 2 2 2 2 2 2 2 3 3 4 4 4 5 5 5 6 7 7 6 6 6 6
2 2 3 3 4 4 3 3 4 4 4 4 4 3 3 3 3 3 3 2 2 2 2 2 2 2 2 3 4 5 4 4 5 5 5 5 6 7 9 10 10 10 8
1 2 2 3 3 3 4 4 4 4 4 4 3 3 3 3 3 3 3 2 2 2 2 2 2 2 2 4 5 6 5 5 5 5 5 4 5 7 6 8 9 10 11
1 2 2 2 3 3 3 3 3 4 4 3 3 3 3 3 3 3 2 2 2 2 2 2 2 2 3 4 5 6 5 5 5 6 6 6 6 6 7 7 7 8 8
1 1 2 2 3 3 3 4 3 3 3 3 2 2 3 3 3 3 2 2 2 2 1 2 2 2 3 4 5 6 4 4 6 6 6 6 7 8 10 8 8 8 8
1 2 2 3 3 3 4 4 3 3 2 2 2 2 2 3 3 2 2 2 2 2 1 2 2 3 3 4 5 6 4 4 5 5 5 7 8 10 11 8 7 8 8
2 2 3 3 3 3 4 4 3 1 1 1 1 1 1 2 2 2 1 1 1 1 2 2 2 3 3 4 5 7 4 4 5 5 4 4 8 10 11 10 7 9 9
2 2 3 2 2 3 4 3 2 1 1 2 2 1 1 1 1 1 1 1 1 2 2 2 2 2 3 4 5 7 7 7 5 5 5 5 8 10 11 9 9 11 10
2 2 3 3 3 3 2 2 1 1 1 1 1 1 1 1 1 1 2 2 2 2 2 2 2 3 3 4 6 7 8 8 6 5 8 9 10 10 8 9 11 9 6
2 2 3 3 3 3 2 2 1 1 1 1 1 0 0 1 1 1 2 2 2 2 2 3 3 3 3 3 4 4 5 6 6 6 7 9 9 8 8 8 6 5 5
2 2 2 2 2 2 2 2 2 1 1 1 0 0 1 1 1 1 2 2 3 3 3 3 3 4 4 5 8 6 5 4 5 5 4 4 4 5 4 5 5 5 5
2 2 2 2 2 2 2 2 2 1 1 0 0 0 1 1 1 2 2 3 4 5 6 6 6 5 7 9 10 10 9 9 8 6 4 4 5 5 5 5 5 5 5
Wind_Direction
202 190 185 181 179 176 173 169 166 162 158 155 151 147 140 125 109 91 85 82 76 71 69 72 66 46 42 41 37 36 38 33 16 1 11 6 55 63 34 31 25 25 16
196 187 183 182 183 180 177 173 171 168 169 166 155 147 136 127 114 103 90 83 75 65 66 74 70 57 51 48 42 32 26 20 2 339 298 273 196 93 15 9 4 360 358
201 189 183 183 183 184 181 177 172 168 165 158 145 135 131 133 134 124 106 85 77 68 59 67 67 57 43 37 23 12 16 5 5 353 324 304 318 338 279 327 343 352 348
203 192 186 185 184 182 177 172 169 166 162 160 164 165 166 163 155 144 133 114 96 86 71 63 59 55 34 28 10 3 351 345 341 348 353 340 332 298 301 279 311 332 330
198 193 188 184 177 169 168 166 163 163 164 166 167 170 165 154 143 144 141 129 113 97 81 61 53 49 27 11 5 359 349 330 317 322 320 319 313 292 277 287 305 309 309
193 185 176 170 167 164 165 165 162 161 162 165 168 172 168 162 156 157 153 143 133 122 105 77 46 35 22 360 346 342 334 321 314 309 304 295 292 306 297 288 301 304 306
182 175 171 171 168 166 167 166 163 162 163 165 169 171 173 172 170 167 166 161 156 151 144 123 160 339 347 326 316 311 305 303 297 295 294 292 287 289 287 285 293 295 299
173 171 172 170 168 168 167 165 164 163 164 167 169 171 176 175 173 174 170 171 170 163 161 173 207 279 295 295 291 281 285 283 283 285 283 286 283 279 280 283 290 292 288
169 168 166 166 163 166 167 166 163 164 163 164 166 171 176 174 169 167 167 167 163 158 166 174 182 214 270 278 270 266 283 283 280 280 280 279 281 275 272 270 271 277 285
158 156 155 155 156 158 159 160 163 161 160 162 164 165 169 171 168 165 167 167 166 164 171 182 186 205 235 255 265 277 282 281 281 280 278 276 277 276 270 268 267 264 268
142 144 143 143 144 146 152 155 156 154 156 159 159 163 165 165 165 167 171 169 168 169 176 187 195 212 232 246 254 263 270 273 278 278 278 285 287 279 273 271 266 265 267
117 127 132 132 137 143 146 149 150 153 156 156 156 161 162 161 162 165 170 171 171 175 182 190 197 209 231 244 249 258 263 269 274 278 281 285 288 285 278 271 269 269 272
116 122 125 130 137 143 147 149 150 152 152 153 155 160 163 164 165 166 170 173 175 179 182 190 202 219 237 247 256 261 265 269 273 277 281 286 286 284 284 282 276 274 275
136 135 132 133 137 143 146 148 150 152 153 155 161 166 168 170 168 167 170 172 178 184 191 205 219 233 242 247 254 263 266 270 274 276 278 281 280 282 283 283 282 281 279
143 148 148 144 139 141 144 148 151 154 156 160 166 169 167 166 165 168 167 169 178 188 195 210 227 238 242 248 263 270 274 276 277 277 277 277 282 286 284 282 283 283 279
170 157 151 150 149 150 151 151 153 155 159 164 168 167 165 164 167 168 165 168 176 186 196 211 225 242 252 267 275 282 279 279 279 281 281 280 275 278 281 283 285 284 282
198 178 170 165 161 161 158 158 155 152 159 164 167 169 170 168 169 168 169 174 183 194 207 222 235 254 270 273 274 277 280 277 277 279 282 283 283 283 282 282 281 279 278
213 183 168 155 151 146 146 142 142 148 152 158 164 169 170 173 171 172 180 184 193 205 217 232 246 262 276 282 280 278 276 274 275 277 277 280 282 282 286 285 283 282 280
204 170 156 147 140 138 138 132 137 143 149 160 167 173 174 175 177 185 194 194 202 214 229 244 255 268 280 282 285 283 278 274 277 278 278 280 282 287 288 287 286 287 287
93 126 127 123 126 129 132 130 135 142 158 171 172 173 180 184 188 200 208 209 214 223 238 253 263 270 279 286 288 286 276 277 281 281 279 275 281 289 290 287 287 287 291
84 111 119 120 125 129 132 133 132 146 159 144 141 149 167 185 191 200 211 209 214 229 243 256 270 275 280 286 289 290 284 282 282 283 285 285 289 290 293 293 288 290 298
89 105 111 106 101 117 131 130 127 112 116 129 134 137 151 176 182 188 203 208 210 227 244 262 279 282 282 288 291 292 291 294 286 282 284 288 294 294 295 294 294 297 297
95 104 110 101 86 90 115 124 102 94 108 124 130 130 143 177 200 208 211 213 221 236 253 265 277 287 289 289 292 293 293 293 290 285 286 289 291 292 289 289 294 295 288
85 98 106 102 86 78 82 93 90 104 116 122 122 139 183 219 229 236 234 236 236 241 252 265 274 283 288 290 294 292 290 287 286 285 287 289 289 286 288 291 288 283 283
71 88 101 98 84 76 75 70 73 91 109 115 134 199 230 247 256 259 261 258 255 257 258 264 273 280 284 293 301 304 299 298 294 293 283 280 283 283 283 285 286 286 284
86 91 93 90 81 74 65 54 53 73 95 120 191 262 264 268 269 269 278 276 272 274 270 275 281 282 284 296 297 296 296 297 298 289 278 279 280 283 286 287 287 284 283